Wind_Speed
44 45 46 47 47 49 51 53 55 57 59 60 60 58 56 54 51 49 47 46 44 43 43 43 43 41 39
44 44 45 46 48 50 53 56 58 56 55 53 51 47 46 45 45 45 45 43 43 43 43 42 41 39 39
46 45 46 48 51 53 56 55 54 49 45 43 43 41 40 41 43 44 43 43 44 45 46 47 45 43 40
44 46 48 51 53 54 55 51 46 38 37 39 39 38 37 39 41 42 42 43 45 46 47 46 45 43 42
45 48 50 51 51 51 48 43 38 35 35 36 36 36 35 37 39 39 41 42 44 46 46 45 43 40 38
48 49 50 49 46 41 38 36 37 35 36 35 37 37 38 40 39 38 37 38 39 41 42 42 40 37 35
48 47 46 41 38 35 34 35 37 38 42 42 42 42 40 38 36 34 33 33 35 37 37 37 35 34 34
42 39 34 31 31 33 34 37 39 41 42 47 42 43 40 37 34 30 28 29 31 35 38 36 35 35 34
32 27 27 27 30 33 34 38 41 41 40 46 42 42 39 35 32 26 23 26 31 35 34 36 38 39 39
21 21 23 26 29 32 35 39 42 43 38 45 41 41 40 33 30 25 23 23 28 29 31 33 36 39 40
15 18 20 23 26 29 33 37 40 39 36 42 41 38 41 41 33 28 25 22 25 26 29 32 34 35 37
16 19 21 23 26 29 31 34 37 38 34 37 41 39 41 41 39 32 27 25 26 25 26 27 29 31 32
17 20 23 25 27 29 30 31 30 30 32 31 34 36 39 39 42 35 34 27 23 25 26 25 25 26 27
18 21 23 25 27 30 30 30 28 24 26 30 32 35 36 36 37 35 32 34 28 26 29 27 25 25 25
21 23 25 26 27 30 31 31 32 30 25 25 29 32 34 37 35 30 28 25 27 28 28 27 23 25 26
22 24 26 27 28 29 31 32 33 31 30 30 30 30 30 28 31 27 24 28 27 27 27 26 20 18 19
22 24 27 28 30 32 32 33 32 33 30 30 32 35 37 34 26 32 34 29 27 24 22 21 17 13 14
Wind_Direction
286 290 293 294 294 294 294 294 296 296 297 297 296 295 293 293 292 291 289 289 288 286 284 281 281 278 275
291 293 294 296 294 295 295 297 299 300 299 298 296 294 294 294 292 291 290 291 290 289 286 283 281 278 275
294 295 295 296 296 298 299 301 301 302 299 296 294 294 294 293 291 290 292 293 291 288 284 282 281 280 278
294 295 298 299 301 302 302 303 303 301 298 297 297 297 296 292 292 294 293 291 288 287 286 286 285 283 279
296 298 301 302 303 305 305 305 302 302 301 301 299 296 292 290 291 290 288 286 286 286 287 287 285 282 277
301 303 303 304 305 305 303 305 306 305 303 306 307 303 301 298 296 293 290 287 284 283 284 284 284 281 274
303 305 305 307 305 305 308 308 309 313 314 313 311 307 304 302 300 298 296 293 289 286 284 282 282 279 275
302 301 302 303 306 308 312 314 318 318 320 311 311 310 308 307 303 301 297 291 286 284 283 285 283 279 278
301 302 303 307 310 312 316 317 316 318 322 312 315 313 312 308 308 306 297 284 278 278 281 279 278 278 277
299 303 306 309 312 316 318 318 318 321 323 313 317 319 318 322 323 322 309 296 289 289 284 281 280 279 278
302 303 310 314 316 318 318 318 318 321 321 315 319 321 317 323 329 329 321 309 294 288 285 284 283 282 281
318 317 319 320 321 321 321 321 322 323 322 317 318 319 320 322 323 329 323 314 305 298 291 286 284 282 282
323 324 325 326 326 327 326 324 326 323 321 319 318 319 321 323 323 331 323 318 314 303 298 294 291 286 283
329 330 330 330 330 331 331 327 328 325 323 320 319 320 322 321 321 323 321 318 315 311 305 306 302 296 289
333 334 333 333 335 333 334 335 334 333 329 320 318 319 320 319 320 323 324 318 312 311 307 306 302 295 286
333 333 335 338 339 337 336 337 336 333 331 327 323 320 320 326 326 332 328 323 319 317 314 312 312 305 290
332 333 335 338 340 339 339 336 333 332 334 331 331 329 328 332 343 342 333 333 329 332 331 331 335 334 321
Height
3042 3039 3035 3031 3028 3022 3016 3010 3006 3001 2995 2989 2983 2977 2971 2968 2964 2960 2957 2956 2954 2953 2950 2948 2947 2946 2945
3029 3024 3021 3018 3014 3008 3003 2997 2991 2985 2979 2972 2966 2961 2957 2954 2949 2946 2944 2942 2940 2937 2935 2934 2933 2932 2932
3016 3012 3008 3005 2999 2994 2987 2982 2976 2970 2964 2958 2953 2950 2946 2942 2937 2933 2931 2928 2925 2922 2921 2919 2919 2919 2920
3003 2999 2995 2990 2985 2978 2972 2967 2962 2958 2953 2947 2944 2940 2936 2930 2925 2922 2918 2915 2911 2908 2906 2905 2906 2906 2906
2993 2987 2983 2977 2970 2965 2958 2953 2950 2947 2943 2940 2935 2931 2926 2920 2915 2910 2906 2903 2899 2896 2894 2893 2892 2892 2892
2979 2975 2970 2964 2958 2953 2948 2944 2940 2938 2933 2931 2923 2919 2912 2907 2903 2899 2895 2892 2889 2886 2884 2881 2880 2878 2878
2968 2963 2956 2951 2948 2944 2939 2935 2931 2926 2919 2918 2909 2906 2901 2898 2893 2888 2884 2881 2877 2874 2871 2869 2868 2867 2866
2957 2951 2946 2943 2938 2934 2930 2925 2920 2914 2910 2902 2900 2895 2891 2887 2884 2879 2875 2872 2867 2863 2859 2858 2857 2855 2855
2946 2943 2939 2936 2932 2927 2923 2917 2911 2908 2902 2890 2890 2883 2880 2876 2874 2871 2867 2862 2858 2853 2850 2847 2844 2843 2842
2940 2937 2934 2930 2926 2920 2915 2908 2902 2898 2895 2882 2879 2873 2865 2865 2864 2860 2856 2852 2847 2843 2839 2836 2833 2830 2828
2935 2932 2929 2925 2921 2916 2910 2903 2896 2892 2886 2874 2869 2865 2858 2851 2851 2850 2846 2842 2837 2834 2830 2825 2822 2819 2817
2929 2926 2924 2920 2916 2911 2905 2899 2891 2883 2879 2870 2861 2857 2851 2845 2840 2840 2837 2832 2827 2823 2820 2817 2814 2810 2808
2925 2922 2918 2914 2909 2905 2900 2894 2888 2880 2872 2865 2857 2852 2846 2840 2832 2831 2824 2823 2819 2814 2810 2807 2805 2803 2800
2922 2918 2914 2910 2904 2898 2893 2887 2882 2878 2870 2860 2854 2847 2841 2836 2829 2823 2819 2810 2809 2806 2801 2799 2796 2793 2791
2917 2913 2909 2905 2899 2893 2886 2881 2873 2868 2865 2859 2850 2843 2836 2829 2823 2818 2811 2808 2802 2797 2793 2789 2788 2784 2781
2913 2909 2905 2900 2895 2889 2882 2875 2869 2863 2856 2850 2843 2837 2832 2827 2816 2812 2807 2800 2796 2791 2786 2781 2779 2775 2772
2910 2905 2900 2896 2889 2884 2879 2872 2865 2858 2851 2843 2836 2828 2820 2815 2814 2804 2795 2793 2788 2784 2780 2776 2772 2770 2767